User: anonymous   Login
Location: Unspecified
(0.0000°N, 0.0000°E)
Time: 20:08:47
(UTC+00:00)
Language:

RAX-2 - Orbit

View from above orbital plane
View from above orbital plane
View from above satellite
View from above satellite

Ground track
Ground track

The orbit data is extracted from the following two-line orbital elements,

1 37853U 11061D   18350.99832673  .00000530  00000-0  37528-4 0  9996
2 37853 101.7185 139.7477 0171095 272.8768  85.2873 15.03011933388897
Epoch (UTC): 16 December 2018 23:57:35
Eccentricity: 0.0171095
inclination: 101.7185°
perigee height: 439 km
apogee height: 676 km
right ascension of ascending node: 139.7477°
argument of perigee: 272.8768°
revolutions per day: 15.03011933
mean anomaly at epoch: 85.2873°
orbit number at epoch: 38889

The dashed part of the orbit path shows where the satellite is in the earth's shadow,  

DLR